timestamp,wind_dir_avg,wind_spd_max_dir,wind_spd_avg,wind_spd_gust,battery_voltage,lat,long
2018-06-01 00:00:00+00:00,57.0,54.0,4.43,5.12,,47.59359,-54.27349
2018-06-01 00:10:00+00:00,58.0,55.0,6.05,6.56,,47.59359,-54.27349
2018-06-01 00:20:00+00:00,47.0,46.0,6.96,7.37,,47.59359,-54.27349
2018-06-01 00:30:00+00:00,45.0,47.0,7.63,7.96,,47.59359,-54.27349
2018-06-01 00:40:00+00:00,48.0,48.0,6.7,7.16,,47.59359,-54.27349
2018-06-01 00:50:00+00:00,53.0,53.0,6.33,6.78,,47.59359,-54.27349
2018-06-01 01:00:00+00:00,48.0,44.0,6.13,6.61,,47.59359,-54.27349
2018-06-01 01:10:00+00:00,40.0,43.0,3.03,3.74,,47.59359,-54.27349
2018-06-01 01:20:00+00:00,44.0,45.0,4.2,5.15,,47.59359,-54.27349
2018-06-01 01:30:00+00:00,41.0,40.0,5.47,5.85,,47.59359,-54.27349
2018-06-01 01:40:00+00:00,39.0,37.0,5.88,6.23,,47.59359,-54.27349
2018-06-01 01:50:00+00:00,34.0,41.0,7.18,7.98,,47.59359,-54.27349
2018-06-01 02:00:00+00:00,45.0,41.0,8.09,8.78,,47.59359,-54.27349
2018-06-01 02:10:00+00:00,35.0,36.0,7.25,8.28,,47.59359,-54.27349
2018-06-01 02:20:00+00:00,31.0,35.0,5.94,6.69,,47.59359,-54.27349
2018-06-01 02:30:00+00:00,23.0,32.0,6.18,8.13,,47.59359,-54.27349
2018-06-01 02:40:00+00:00,24.0,26.0,6.54,7.55,,47.59359,-54.27349
2018-06-01 02:50:00+00:00,26.0,21.0,7.64,8.44,,47.59359,-54.27349
2018-06-01 03:00:00+00:00,20.0,19.0,7.15,8.22,,47.59359,-54.27349
2018-06-01 03:10:00+00:00,21.0,26.0,6.03,7.43,,47.59359,-54.27349
2018-06-01 03:20:00+00:00,13.0,12.0,6.26,6.82,,47.59359,-54.27349
2018-06-01 03:30:00+00:00,6.0,5.0,4.19,4.5,,47.59359,-54.27349
2018-06-01 03:40:00+00:00,7.0,11.0,2.69,3.49,,47.59359,-54.27349
2018-06-01 03:50:00+00:00,26.0,27.0,4.96,5.94,,47.59359,-54.27349
2018-06-01 04:00:00+00:00,29.0,27.0,5.88,6.78,,47.59359,-54.27349
2018-06-01 04:10:00+00:00,22.0,31.0,5.23,6.24,,47.59359,-54.27349
2018-06-01 04:20:00+00:00,34.0,34.0,4.22,5.39,,47.59359,-54.27349
2018-06-01 04:30:00+00:00,78.0,81.0,4.27,5.07,,47.59359,-54.27349
2018-06-01 04:40:00+00:00,57.0,61.0,5.22,6.28,,47.59359,-54.27349
2018-06-01 04:50:00+00:00,66.0,70.0,5.48,5.94,,47.59359,-54.27349
2018-06-01 05:00:00+00:00,61.0,59.0,5.66,5.93,,47.59359,-54.27349
2018-06-01 05:10:00+00:00,61.0,62.0,6.09,6.39,,47.59359,-54.27349
2018-06-01 05:20:00+00:00,42.0,42.0,6.68,6.97,,47.59359,-54.27349
2018-06-01 05:30:00+00:00,37.0,39.0,5.44,5.74,,47.59359,-54.27349
2018-06-01 05:40:00+00:00,21.0,24.0,4.47,5.4,,47.59359,-54.27349
2018-06-01 05:50:00+00:00,23.0,31.0,5.78,6.91,,47.59359,-54.27349
2018-06-01 06:00:00+00:00,32.0,37.0,6.86,7.49,,47.59359,-54.27349
2018-06-01 06:10:00+00:00,38.0,39.0,7.76,7.91,,47.59359,-54.27349
2018-06-01 06:20:00+00:00,39.0,41.0,5.92,6.19,,47.59359,-54.27349
2018-06-01 06:30:00+00:00,50.0,49.0,5.62,5.93,,47.59359,-54.27349
2018-06-01 06:40:00+00:00,55.0,55.0,5.49,5.77,,47.59359,-54.27349
2018-06-01 06:50:00+00:00,51.0,52.0,4.83,5.16,,47.59359,-54.27349
2018-06-01 07:00:00+00:00,53.0,51.0,4.68,5.46,,47.59359,-54.27349
2018-06-01 07:10:00+00:00,59.0,57.0,6.21,6.56,,47.59359,-54.27349
2018-06-01 07:20:00+00:00,68.0,71.0,4.41,4.94,,47.59359,-54.27349
2018-06-01 07:30:00+00:00,65.0,64.0,4.5,4.88,,47.59359,-54.27349
2018-06-01 07:40:00+00:00,57.0,57.0,4.24,4.48,,47.59359,-54.27349
2018-06-01 07:50:00+00:00,56.0,55.0,3.49,3.67,,47.59359,-54.27349
2018-06-01 08:00:00+00:00,35.0,36.0,2.89,3.44,,47.59359,-54.27349
2018-06-01 08:10:00+00:00,52.0,52.0,4.84,5.37,,47.59359,-54.27349
2018-06-01 08:20:00+00:00,68.0,65.0,3.67,4.35,,47.59359,-54.27349
2018-06-01 08:30:00+00:00,79.0,88.0,4.77,5.27,,47.59359,-54.27349
2018-06-01 08:40:00+00:00,68.0,66.0,4.42,4.88,,47.59359,-54.27349
2018-06-01 08:50:00+00:00,54.0,53.0,5.09,5.35,,47.59359,-54.27349
2018-06-01 09:00:00+00:00,62.0,59.0,5.86,6.25,,47.59359,-54.27349
2018-06-01 09:10:00+00:00,51.0,52.0,6.45,6.66,,47.59359,-54.27349
2018-06-01 09:20:00+00:00,61.0,58.0,5.63,5.94,,47.59359,-54.27349
2018-06-01 09:30:00+00:00,56.0,56.0,5.46,5.8,,47.59359,-54.27349
2018-06-01 09:40:00+00:00,53.0,54.0,5.01,5.22,,47.59359,-54.27349
2018-06-01 09:50:00+00:00,48.0,47.0,4.09,4.32,,47.59359,-54.27349
2018-06-01 10:00:00+00:00,44.0,43.0,3.99,4.24,,47.59359,-54.27349
2018-06-01 10:10:00+00:00,40.0,42.0,4.41,4.65,,47.59359,-54.27349
2018-06-01 10:20:00+00:00,44.0,45.0,4.84,5.17,,47.59359,-54.27349
2018-06-01 10:30:00+00:00,39.0,40.0,4.28,4.65,,47.59359,-54.27349
2018-06-01 10:40:00+00:00,39.0,44.0,3.61,3.92,,47.59359,-54.27349
2018-06-01 10:50:00+00:00,57.0,55.0,2.58,2.88,,47.59359,-54.27349
2018-06-01 11:00:00+00:00,68.0,63.0,2.72,3.2,,47.59359,-54.27349
2018-06-01 11:10:00+00:00,66.0,59.0,3.66,4.04,,47.59359,-54.27349
2018-06-01 11:20:00+00:00,69.0,58.0,2.68,3.34,,47.59359,-54.27349
2018-06-01 11:30:00+00:00,64.0,54.0,3.3,3.69,,47.59359,-54.27349
2018-06-01 11:40:00+00:00,51.0,47.0,3.21,3.64,,47.59359,-54.27349
2018-06-01 11:50:00+00:00,38.0,38.0,5.0,5.47,,47.59359,-54.27349
2018-06-01 12:00:00+00:00,43.0,40.0,4.5,4.92,,47.59359,-54.27349
2018-06-01 12:10:00+00:00,44.0,44.0,4.44,4.65,,47.59359,-54.27349
2018-06-01 12:20:00+00:00,85.0,84.0,3.73,4.45,,47.59359,-54.27349
2018-06-01 12:30:00+00:00,108.0,116.0,3.64,4.42,,47.59359,-54.27349
2018-06-01 12:40:00+00:00,66.0,70.0,2.45,3.44,,47.59359,-54.27349
2018-06-01 12:50:00+00:00,78.0,78.0,2.49,3.19,,47.59359,-54.27349
2018-06-01 13:00:00+00:00,85.0,84.0,5.03,5.81,,47.59359,-54.27349
2018-06-01 13:10:00+00:00,82.0,78.0,4.33,4.92,,47.59359,-54.27349
2018-06-01 13:20:00+00:00,82.0,80.0,5.88,6.58,,47.59359,-54.27349
2018-06-01 13:30:00+00:00,80.0,80.0,5.17,5.24,,47.59359,-54.27349
2018-06-01 13:40:00+00:00,86.0,86.0,5.85,6.48,,47.59359,-54.27349
2018-06-01 13:50:00+00:00,86.0,82.0,5.82,6.79,,47.59359,-54.27349
2018-06-01 14:00:00+00:00,85.0,89.0,6.17,6.99,,47.59359,-54.27349
2018-06-01 14:10:00+00:00,86.0,92.0,4.44,6.01,,47.59359,-54.27349
2018-06-01 14:20:00+00:00,84.0,85.0,4.34,4.86,,47.59359,-54.27349
2018-06-01 14:30:00+00:00,81.0,81.0,4.14,4.37,,47.59359,-54.27349
2018-06-01 14:40:00+00:00,68.0,63.0,3.19,3.56,,47.59359,-54.27349
2018-06-01 14:50:00+00:00,51.0,53.0,2.78,2.92,,47.59359,-54.27349
2018-06-01 15:00:00+00:00,48.0,49.0,2.73,2.79,,47.59359,-54.27349
2018-06-01 15:10:00+00:00,25.0,23.0,2.06,2.38,,47.59359,-54.27349
2018-06-01 15:20:00+00:00,13.0,8.0,1.82,2.16,,47.59359,-54.27349
2018-06-01 15:30:00+00:00,49.0,52.0,1.97,2.17,,47.59359,-54.27349
2018-06-01 15:40:00+00:00,60.0,61.0,2.52,2.68,,47.59359,-54.27349
2018-06-01 15:50:00+00:00,52.0,57.0,2.71,2.97,,47.59359,-54.27349
2018-06-01 16:00:00+00:00,51.0,50.0,2.44,2.68,,47.59359,-54.27349
2018-06-01 16:10:00+00:00,49.0,47.0,2.18,2.55,,47.59359,-54.27349
2018-06-01 16:20:00+00:00,9.0,13.0,1.47,1.97,,47.59359,-54.27349
2018-06-01 16:30:00+00:00,53.0,52.0,1.72,1.86,,47.59359,-54.27349
2018-06-01 16:40:00+00:00,74.0,77.0,2.58,2.82,,47.59359,-54.27349
2018-06-01 16:50:00+00:00,71.0,68.0,3.57,3.99,,47.59359,-54.27349
2018-06-01 17:00:00+00:00,36.0,33.0,3.99,4.25,,47.59359,-54.27349
2018-06-01 17:10:00+00:00,48.0,52.0,3.02,3.45,,47.59359,-54.27349
2018-06-01 17:20:00+00:00,52.0,54.0,3.9,4.12,,47.59359,-54.27349
2018-06-01 17:30:00+00:00,61.0,63.0,2.98,3.28,,47.59359,-54.27349
2018-06-01 17:40:00+00:00,103.0,128.0,3.29,5.97,,47.59359,-54.27349
2018-06-01 17:50:00+00:00,104.0,98.0,4.02,6.91,,47.59359,-54.27349
2018-06-01 18:00:00+00:00,100.0,95.0,2.96,5.2,,47.59359,-54.27349
2018-06-01 18:10:00+00:00,120.0,133.0,2.56,4.56,,47.59359,-54.27349
2018-06-01 18:20:00+00:00,81.0,74.0,2.62,4.05,,47.59359,-54.27349
2018-06-01 18:30:00+00:00,53.0,72.0,1.53,2.25,,47.59359,-54.27349
2018-06-01 18:40:00+00:00,70.0,79.0,1.82,2.63,,47.59359,-54.27349
2018-06-01 18:50:00+00:00,41.0,45.0,1.65,1.82,,47.59359,-54.27349
2018-06-01 19:00:00+00:00,16.0,15.0,2.41,2.69,,47.59359,-54.27349
2018-06-01 19:10:00+00:00,21.0,21.0,4.14,4.51,,47.59359,-54.27349
2018-06-01 19:20:00+00:00,17.0,18.0,3.76,3.97,,47.59359,-54.27349
2018-06-01 19:30:00+00:00,31.0,26.0,3.18,3.64,,47.59359,-54.27349
2018-06-01 19:40:00+00:00,12.0,26.0,2.43,3.23,,47.59359,-54.27349
2018-06-01 19:50:00+00:00,11.0,13.0,2.84,3.18,,47.59359,-54.27349
2018-06-01 20:00:00+00:00,26.0,28.0,3.31,3.72,,47.59359,-54.27349
2018-06-01 20:10:00+00:00,18.0,14.0,3.38,3.77,,47.59359,-54.27349
2018-06-01 20:20:00+00:00,33.0,36.0,2.2,2.49,,47.59359,-54.27349
2018-06-01 20:30:00+00:00,39.0,36.0,2.23,2.72,,47.59359,-54.27349
2018-06-01 20:40:00+00:00,49.0,52.0,2.2,2.69,,47.59359,-54.27349
2018-06-01 20:50:00+00:00,62.0,65.0,2.22,2.52,,47.59359,-54.27349
2018-06-01 21:00:00+00:00,73.0,76.0,2.63,3.15,,47.59359,-54.27349
2018-06-01 21:10:00+00:00,84.0,89.0,4.77,5.61,,47.59359,-54.27349
2018-06-01 21:20:00+00:00,84.0,81.0,3.75,4.36,,47.59359,-54.27349
2018-06-01 21:30:00+00:00,63.0,65.0,2.43,2.8,,47.59359,-54.27349
2018-06-01 21:40:00+00:00,63.0,61.0,2.27,2.69,,47.59359,-54.27349
2018-06-01 21:50:00+00:00,69.0,82.0,2.44,3.02,,47.59359,-54.27349
2018-06-01 22:00:00+00:00,113.0,92.0,2.82,3.98,,47.59359,-54.27349
2018-06-01 22:10:00+00:00,133.0,131.0,4.59,5.3,,47.59359,-54.27349
2018-06-01 22:20:00+00:00,115.0,126.0,3.68,5.44,,47.59359,-54.27349
2018-06-01 22:30:00+00:00,104.0,108.0,2.58,3.99,,47.59359,-54.27349
2018-06-01 22:40:00+00:00,87.0,84.0,1.54,2.59,,47.59359,-54.27349
2018-06-01 22:50:00+00:00,94.0,96.0,1.22,1.45,,47.59359,-54.27349
2018-06-01 23:00:00+00:00,30.0,29.0,1.51,1.78,,47.59359,-54.27349
2018-06-01 23:10:00+00:00,48.0,48.0,1.55,1.7,,47.59359,-54.27349
2018-06-01 23:20:00+00:00,26.0,19.0,2.37,2.56,,47.59359,-54.27349
2018-06-01 23:30:00+00:00,38.0,39.0,3.23,3.45,,47.59359,-54.27349
2018-06-01 23:40:00+00:00,39.0,39.0,3.09,3.27,,47.59359,-54.27349
2018-06-01 23:50:00+00:00,45.0,46.0,3.3,3.47,,47.59359,-54.27349
